User: anonymous   Login
Location: *
(0.1100°N, 5.5000°E)
Time: 03:40:12
(UTC+00:00)
Language:

CCE 1 Rocket - Orbit

View from above orbital plane
View from above orbital plane
View from above satellite
View from above satellite

Ground track
Ground track

The orbit data is extracted from the following two-line orbital elements,

1 15202U 84088D   23084.43617199  .00000344  00000-0  20007-3 0  9998
2 15202  28.9005 179.0427 1989285  63.7140 315.3900 10.81014560522094
Epoch (UTC): 25 March 2023 10:28:05
Eccentricity: 0.1989285
inclination: 28.9005°
perigee height: 543 km
apogee height: 3980 km
right ascension of ascending node: 179.0427°
argument of perigee: 63.7140°
revolutions per day: 10.81014560
mean anomaly at epoch: 315.3900°
orbit number at epoch: 52209

The dashed part of the orbit path shows where the satellite is in the earth's shadow,  

DLR